www.pogodaiklimat.ru

Погода и климат >> Архив погоды >> Россия >> Якутия >> Мыс Быков


ПОГОДА на Мысе Быков

  • Прогноз погоды на Мысе Быков
  • Монитор погоды на Мысе Быков

АРХИВ ПОГОДЫ на Мысе Быков

Время (UTC), дата Ветер
(напр.,м/с)
 
Видим.   Явления Облачность Т
(С)
Тd
(С)
f
(%)
Тe
(С)
Тes
(С)
Комфортность P
(гПа)
Po
(гПа)
Тmin
(С)
Tmax
(С)
R
(мм)
R24
(мм)
S
(см)
00 14.03 В 1 20 км 3/0
[Ci fib]
-26.8 -30.7 69 -31 -30 опасность
обморожения
1014.8 1012.8 -26.8 0.0 23
03 14.03 В 1 20 км ясно -27.4 -31.2 70 -31 -29 опасность
обморожения
1015.5 1013.5 -27.4
06 14.03 ЮВ 3 20 км ясно -26.2 -30.1 70 -35 -34 опасность
обморожения
1015.8 1013.8
09 14.03 Ю 4 20 км ясно -27.4 -31.2 70 -38 -38 опасность
обморожения
1016.3 1014.3
12 14.03 ЮЗ 3 20 км ясно -27.6 -31.4 70 -37 -37 опасность
обморожения
1016.7 1014.7 -22.2
15 14.03 ЮЗ 2 20 км ясно -28.3 -32.1 70 -36 -36 опасность
обморожения
1016.5 1014.5
18 14.03 ЮЗ 3 20 км ясно -28.0 -31.9 69 -37 -37 опасность
обморожения
1017.4 1015.4
21 14.03 ЮЗ 4 20 км ясно -28.6 -32.4 70 -40 -40 опасность
обморожения
1017.9 1015.9
00 15.03 Ю 1 20 км ясно -29.3 -33.1 70 -33 -33 опасность
обморожения
1017.0 1015.0 -29.3 23
03 15.03 ЮВ 2 20 км ясно -27.6 -31.4 70 -35 -33 опасность
обморожения
1017.3 1015.3
06 15.03 ЮВ 3 20 км ясно -28.3 -32.1 70 -38 -37 опасность
обморожения
1017.0 1015.0
09 15.03 ЮВ 3 20 км ясно -28.8 -32.6 70 -38 -38 опасность
обморожения
1016.6 1014.6
12 15.03 ЮВ 5 20 км ясно -31.3 -35.0 70 -44 -44 опасность
обморожения
1017.7 1015.7 -27.6
15 15.03 ЮВ 4 20 км ясно -31.6 -35.2 70 -43 -43 опасность
обморожения
1018.1 1016.1
18 15.03 ЮВ 3 20 км ясно -30.8 -34.6 69 -41 -41 опасность
обморожения
1017.5 1015.5
21 15.03 ЮВ 3 20 км ясно -32.4 -36.2 69 -43 -43 опасность
обморожения
1017.9 1015.9
00 16.03 ЮВ 4 20 км ясно -32.5 -36.9 65 -44 -44 опасность
обморожения
1017.9 1015.9 -33.2 23
03 16.03 ЮВ 4 20 км ясно -30.7 -34.4 70 -42 -41 опасность
обморожения
1017.8 1015.8
06 16.03 ЮВ 4 20 км ясно -29.1 -33.0 69 -40 -39 опасность
обморожения
1018.1 1016.1
09 16.03 ЮВ 3 20 км ясно -30.0 -33.7 70 -40 -40 опасность
обморожения
1019.2 1017.2
12 16.03 ЮВ 2 20 км ясно -31.7 -35.5 69 -39 -39 опасность
обморожения
1019.9 1017.9 -29.1
15 16.03 ЮВ 2 20 км ясно -32.3 -35.9 70 -40 -40 опасность
обморожения
1020.3 1018.3
18 16.03 В 2 20 км ясно -32.8 -37.2 65 -41 -41 опасность
обморожения
1020.7 1018.7
21 16.03 З 2 20 км ясно -32.5 -36.9 65 -40 -40 опасность
обморожения
1020.4 1018.4
00 17.03 В 1 20 км ясно -31.8 -35.5 70 -36 -35 опасность
обморожения
1021.7 1019.7 -33.1 23
03 17.03 В 1 20 км ясно -30.4 -34.9 65 -35 -32 опасность
обморожения
1022.2 1020.2
06 17.03 С 1 20 км ясно -31.0 -34.8 69 -35 -34 опасность
обморожения
1021.5 1019.5
09 17.03 С 2 20 км ясно -29.7 -33.5 69 -37 -37 опасность
обморожения
1020.7 1018.7
12 17.03 С 2 20 км ясно -30.6 -34.4 69 -38 -38 опасность
обморожения
1020.3 1018.3 -29.6
15 17.03 С 2 20 км ясно -33.1 -37.4 65 -41 -41 опасность
обморожения
1021.5 1019.5
18 17.03 С 3 20 км ясно -33.4 -37.7 65 -44 -44 опасность
обморожения
1022.2 1020.2
21 17.03 С 2 20 км ясно -33.3 -37.0 69 -41 -41 опасность
обморожения
1021.6 1019.6
00 18.03 СЗ 4 20 км ясно -34.3 -38.5 66 -47 -46 опасность
обморожения
1022.2 1020.2 -35.2 23
03 18.03 С 3 20 км ясно -33.2 -37.7 64 1022.2 1020.2
06 18.03 СЗ 2 20 км ясно -31.7 -35.5 69 -39 -38 опасность
обморожения
1022.2 1020.2
09 18.03 СЗ 4 20 км ясно -32.5 -36.9 65 -44 -44 опасность
обморожения
1022.7 1020.7
12 18.03 СЗ 3 20 км ясно -33.1 -37.4 65 -43 -43 опасность
обморожения
1023.1 1021.1 -31.6
15 18.03 С 2 20 км ясно -34.0 -38.3 65 -42 -42 опасность
обморожения
1012.8 1010.8
18 18.03 СЗ 2 20 км ясно -34.6 -38.8 65 -43 -43 опасность
обморожения
1022.3 1020.3
21 18.03 СЗ 2 20 км ясно -35.0 -39.4 64 -43 -43 опасность
обморожения
1021.9 1019.9
00 19.03 штиль 0 20 км ясно -32.6 -36.9 65 -33 -31 опасность
обморожения
1022.6 1020.6 -35.0 23
03 19.03 штиль 0 20 км ясно -29.7 -33.5 69 -30 -27 1022.3 1020.3
06 19.03 штиль 0 20 км ясно -29.0 -32.8 70 -29 -27 1021.9 1019.9
09 19.03 Ю 3 20 км ясно -31.2 -35.0 69 -41 -41 опасность
обморожения
1020.6 1018.6
12 19.03 Ю 4 20 км ясно -32.0 -35.7 70 -44 -44 опасность
обморожения
1021.1 1019.1 -29.0
15 19.03 Ю 3 20 км ясно -33.1 -36.7 70 -43 -43 опасность
обморожения
1021.9 1019.9
18 19.03 Ю 2 20 км ясно -32.4 -36.2 69 -40 -40 опасность
обморожения
1022.2 1020.2
21 19.03 ЮВ 3 20 км ясно -31.6 -35.2 70 -42 -42 опасность
обморожения
1021.7 1019.7
00 20.03 ЮЗ 2 20 км ясно -26.8 -30.0 74 -34 -33 опасность
обморожения
1018.2 1016.2 -33.1 23
03 20.03 ЮЗ 5 20 км ясно -23.0 -26.3 74 -34 -33 опасность
обморожения
1017.7 1015.7
06 20.03 ЮЗ 5 20 км ясно -21.3 -25.3 70 -32 -31 опасность
обморожения
1017.2 1015.2
09 20.03 ЮЗ 4 20 км 3/0
[Ci fib]
-20.5 -24.6 70 -30 -30 1017.2 1015.2
12 20.03 ЮЗ 2 20 км 3/0
[Ac trans Ci fib]
-21.7 -25.7 70 -28 -28 1017.8 1015.8 -19.9
15 20.03 ЮЗ 7-10
{11}
20 км позёмок 4/0
[Ac trans Ci fib]
-20.2 -23.5 75 -32 -32 опасность
обморожения
1017.3 1015.3
18 20.03 ЮЗ 8-12
{14}
2000 м слаб. снег {метель} 10/0
[As op]
-18.6 -21.2 80 -31 -31 опасность
обморожения
1016.9 1014.9

 

Местоположение метеостанции Мыс Быков (Якутия, Россия): широта 72.00 долгота 129.10 высота над уровнем моря 16 м.

В архиве по умолчанию представлена погода на Мысе Быков за последнюю неделю. Архивные данные за месяц целиком и за предыдущие месяцы, начиная с января 2011 года, Вы можете получить, выбрав интересующий диапазон дат из раскрывающегося списка и нажав кнопку "Ввод!".


*Определитесь, кто Вы:
робот инопланетянин человек

Внимание! Время в таблицах - всемирное. Для получения местного времени необходимо прибавить поправку, которая равна 9 ч.

Смотрите также архив погоды в соседних городах и на ближайших метеорологических станциях:

Погода в Тикси (Якутия, Россия) (47 км)
Погода на Столб Острове (Якутия, Россия) (105 км)
Погода в Кюсюре (Якутия, Россия) (159 км)
Погода в Тюмяти (Якутия, Россия) (193 км)
Погода в Юбилейной (Якутия, Россия) (287 км)
Погода в Усть-Куйге (Якутия, Россия) (324 км)
Погода на Усть-Оленеке (Якутия, Россия) (330 км)
Погода на Мысе Кигилях (Якутия, Россия) (384 км)
Погода в Джарджане (Якутия, Россия) (410 км)
Погода на Проливе Санникова (Якутия, Россия) (430 км)

Пояснения к столбцам:

Ветер - указаны скорость ветра в м/с - средняя за 10 мин, порывы в срок и между сроками (в фигурных скобках) и направление, откуда дует ветер: С - северный, СВ - северо-восточный, В - восточный, ЮВ - юго-восточный, Ю - южный, ЮЗ - юго-западный, З - западный, СЗ - северо-западный.
Видимость - горизонтальная дальность видимости в метрах или километрах. При видимости от 1 до 10 км при отсутствии осадков обычно наблюдается дымка, при ухудшении видимости до 1 км и менее - туман. В сухую погоду видимость может ухудшаться дымом, пылью или мглою.
Явления - указаны атмосферные явления, наблюдавшиеся в срок или в последний час перед сроком; фигурными скобками обозначены явления, наблюдавшиеся между сроками (за 1-3 часа до срока); квадратными скобками обозначены град или гололедные отложения с указанием их диаметра в мм.
Облачность - указаны через наклонную черту общая и нижняя облачность в баллах и высота нижней границы облаков в метрах; квадратными скобками обозначены формы облаков: Ci - перистые, Cs - перисто-слоистые, Cc - перисто-кучевые, Ac - высококучевые, As - высокослоистые, Sc - слоисто-кучевые, Ns - слоисто-дождевые, Cu - кучевые, Cb - кучево-дождевые. Подробнее классификацию облаков см. в Атласе облаков (PDF).
T - Температура воздуха - температура, измеренная на высоте 2 м над землей.
Td - Температура точки росы - температура, при понижении до которой содержащийся в воздухе водяной пар достигнет насыщения.
f - Относительная влажность воздуха - влажноcть воздуха, измеренная на высоте 2 м над землей.
Te - Эффективная температура - температура, которую ощущает одетый по сезону человек в тени. Характеристика душности погоды. При расчете учитывается влияние влажности воздуха и скорости ветра на теплоощущения человека.
Tes - Эффективная температура на солнце - температура, которую ощущает человек, с поправкой на солнечный нагрев. Характеристика знойности погоды. Зависит от высоты солнца над горизонтом, облачности и скорости ветра. Ночью, в пасмурную погоду, а также при ветре 12 м/с и более поправка равна нулю.
P - Атмосферное давление - приведенное к уровню моря атмосферное давление.
Po - Атмосферное давление - измеренное на уровне метеостанции атмосферное давление.
Tmin - Минимальная температура - минимум температуры воздуха на высоте 2 м над землей.
Tmax - Максимальная температура - максимум температуры воздуха на высоте 2 м над землей.
R - Количество осадков - Количество выпавших осадков за период времени, мм. При наведении курсора мыши на число - период времени, за который выпало указанное количество осадков.
R24 - Количество осадков - Количество выпавших осадков за 24 часа, мм.
S - Снежный покров - Высота снежного покрова, см. При наведении курсора мыши на число - состояние снежного покрова и степень покрытия местности в баллах.